Greenville, ME

5:39 PM EST on November 22, 2019 (GMT -0500)
Greenville

Weather History for KGNR - September, 2019

Change the Weather History Date:

Sunday, September 29, 2019

  Actual Average (KMLT) Record (KMLT)
Temperature  
Mean Temperature 52 °F -  
Max Temperature 59 °F 62 °F 81 °F (1952)
Min Temperature 42 °F 39 °F 22 °F (1980)
Degree Days  
Heating Degree Days 14    
Growing Degree Days 2 (Base 50)    
Moisture  
Dew Point 42 °F    
Average Humidity 75    
Maximum Humidity 93    
Minimum Humidity 55    
Precipitation  
Precipitation 0.00 in - - ()
Sea Level Pressure  
Sea Level Pressure 30.23 in    
Wind  
Wind Speed 12 mph ()    
Max Wind Speed 23 mph    
Max Gust Speed 29 mph    
Averages and records for this station are not official NWS values.
T = Trace of Precipitation, MM = Missing Value Source: Averaged Metar Reports

Daily Weather History Graph

Daily Weather History Graph

Search for Another Location

Airport or City:

Astronomy

Sep. 29, 2019 Rise Set
Actual Time 6:33 AM EDT 6:22 PM EDT
Civil Twilight 6:04 AM EDT 6:52 PM EDT
Nautical Twilight 5:29 AM EDT 7:26 PM EDT
Astronomical Twilight 4:54 AM EDT 8:01 PM EDT
Moon 7:20 AM EDT (9/29) 7:19 PM EDT (9/29)
Length of Visible Light 12h 48m
Length of Day
11h 49m
New Moon, 1% of the Moon is Illuminated
Sep 29
New Moon
Oct 5
First Quarter
Oct 13
Full
Oct 21
Last Quarter
Oct 27
New

Hourly Weather History & Observations

Time (EDT) Temp. Windchill Dew Point Humidity Pressure Visibility Wind Dir Wind Speed Gust Speed Precip Events Conditions
12:56 AM 59.0 °F - 57.0 °F 93% 30.02 in - NW 11.5 mph 19.6 mph N/A   Unknown
1:56 AM 57.0 °F - 54.0 °F 89% 30.04 in - NW 15.0 mph 25.3 mph N/A   Unknown
2:56 AM 57.0 °F - 53.1 °F 87% 30.06 in - NW 15.0 mph 24.2 mph N/A   Unknown
3:56 AM 55.0 °F - 53.1 °F 93% 30.07 in - NW 11.5 mph 20.7 mph N/A   Unknown
4:56 AM 54.0 °F - 52.0 °F 93% 30.09 in - NW 15.0 mph 25.3 mph N/A   Unknown
5:56 AM 53.1 °F - 50.0 °F 89% 30.13 in - NW 17.3 mph 24.2 mph N/A   Unknown
7:56 AM 46.9 °F - 42.1 °F 83% 30.22 in - NW 16.1 mph 27.6 mph N/A   Unknown
8:56 AM 45.0 °F 38.2 °F 39.9 °F 82% 30.25 in - NW 15.0 mph 24.2 mph N/A   Unknown
9:56 AM 46.9 °F - 39.0 °F 74% 30.27 in - NNW 16.1 mph 27.6 mph N/A   Unknown
10:56 AM 48.0 °F - 39.0 °F 71% 30.27 in - NNW 15.0 mph 21.9 mph N/A   Unknown
11:56 AM 51.1 °F - 39.0 °F 63% 30.26 in - NNW 23.0 mph 28.8 mph N/A   Unknown
12:56 PM 51.1 °F - 39.0 °F 63% 30.26 in - NW 15.0 mph 25.3 mph N/A   Unknown
1:56 PM 51.1 °F - 37.9 °F 61% 30.27 in - NW 15.0 mph 28.8 mph N/A   Unknown
2:56 PM 53.1 °F - 39.0 °F 59% 30.27 in - NNW 16.1 mph 25.3 mph N/A   Unknown
3:56 PM 54.0 °F - 37.9 °F 55% 30.27 in - NNW 12.7 mph 23.0 mph N/A   Unknown
5:56 PM 51.1 °F - 37.9 °F 61% 30.27 in - NW 16.1 mph 20.7 mph N/A   Unknown
6:56 PM 48.0 °F - 37.0 °F 66% 30.30 in - NW 10.4 mph 19.6 mph N/A   Unknown
7:56 PM 46.9 °F - 36.0 °F 66% 30.32 in - NNW 12.7 mph 21.9 mph N/A   Unknown
8:56 PM 45.0 °F 40.1 °F 36.0 °F 71% 30.33 in - NNW 9.2 mph 19.6 mph N/A   Unknown
9:56 PM 44.1 °F 42.5 °F 36.0 °F 73% 30.36 in - Variable 3.5 mph - N/A   Unknown
10:56 PM 44.1 °F 37.7 °F 36.0 °F 73% 30.35 in - NNW 12.7 mph 21.9 mph N/A   Unknown
11:56 PM 42.1 °F 36.6 °F 36.0 °F 79% 30.37 in - North 9.2 mph 21.9 mph N/A   Unknown